Weather in Rabaul

Papua New Guinea     4°11′48″S   152°10′25″E
temp.,
°C
wind,
m/s
gust,
m/s
humid.,
%
clouds,
%
prec.,
mm/h
press.,
hPa
HPBL,
m
6 march, sat
sat601:00+27wnw357884 1.0 1008452
04:00+27wnw347886 1.3 1008432
07:00+27wnw347797 0.3 1009569
10:00+29nw457195 0.3 1010715
13:00+29nnw577399 0.3 1007686
16:00+29nw567599 1.4 1007570
19:00+28nw5575100 1.4 1009454
22:00+28nw3475100 1.6 1010580
7 march, sun
sun701:00+27wnw3578100 1.8 1008388
04:00+27wnw347899 2.6 1008358
07:00+27wnw347893 0.3 1010368
10:00+28nw457696 2.3 1011428
13:00+28nw5677100 2.4 1009428
16:00+28nnw5674100 5.8 1007559
19:00+28nw447498 1.8 1009515
22:00+28wnw337394 2.7 1011464
8 march, mon
mon801:00+27sw2280100 2.3 1009158
04:00+26sw2279100 4.1 1008180
07:00+26s3378100 1.6 1011136
10:00+27se4478100 2.8 1012425
13:00+26s3382100 1.3 1009200
16:00+25ese5585100 2.8 1009428
19:00+24s3489100 3.3 1011220
22:00+25sw2283100 3.7 1011223
9 march, tue
tue901:00+26nnw117799 0.0 1010302
04:00+26wsw227994 0.0 1009299
07:00+26sw1179100 0.0 1011215
10:00+27nw2274100 0.0 1012329
13:00+27nw4476100 0.0 1009313
16:00+28nw547586 0.2 1009447
19:00+28wnw337536 1.2 1011370
22:00+27ssw117568 1.3 1012212
10 march, wed
wed1001:00+26s228199 0.1 1011180
04:00+26s228294 0.3 1010164
07:00+26s338250 0.0 1011196
10:00+28ese337439 0.0 1012497
13:00+29e44671 0.0 1009448
16:00+29ese55701 0.0 1008581
19:00+28sse687911 0.3 1010383
22:00+27s587612 0.4 1012490